Burns Municipal Airport
KBNO : now visible

Airfield :











YOU CAN JOIN US ON...

 
LOGIN :

Register | Disclaimer

   EN    FR    IT 

 









Legend :    VFR   Marginal VFR   IFR   Intensive IFR   Very Intensive IFR
Visi :
Ceiling :
>= 8 km
>= 3000ft
5 to 8 km
1000 to 3000 ft
1500m to 5 km
500 to 1000 ft
800 to 1500m
200 to 500 ft
< 800m
< 200 ft
Symbols :   Thunderstorms  Fog  Heavy snow  Heavy precipitations  Wind > 20 kt






- Airport Elevation : 4148 ft


KBNO - Burns Municipal

CURRENT METAR :
  • 190653Z AUTO 00000KT 10SM M02/M08 A3038 RMK AO2 SLP308 T10221083 $

EXPIRED METARs :
  • 190553Z AUTO 35009KT 10SM M01/M07 A3038 RMK AO2 SLP308 T10111072 10039 21017 53009 $
  • 190453Z AUTO 35009KT 10SM M01/M07 A3036 RMK AO2 SLP303 T10061072 $

TAF KBNO
Valid from the 19 at 06:00 until the 20 at 06:00 UTC


190522Z 1906/2006 35010KT P6SM SKC
FM191000 VRB04KT P6SM SKC
FM191800 09006KT P6SM SCT200
KZLC FIR / North America



MET'MAP, your aeronautical weather chart ! - Copyright ORBIFLY December 2007 - Disclaimer

ORBIFLY MET'MAP TEAM :

Programming & Development : Alexandra Zaïnal
Concept & original design : Baudouin d'Aumeries
Assistance for programming : Marc-Olivier Méhu
Technical & hardware support : Manuel Goepfert

Contact : metmap@orbifly.com




SOURCES & CREDITS :

   NOAA       Earth
Advisory